contact:dominique.lefevre@mio.osupytheas.fr, maurice.libes@osupytheas.fr, didier.mallarino@osupytheas.fr
Project:EMSO http://www.emso-fr.org/EMSO-France
Depth: 2436.0 m
Title:EMSO Ligure Ouest : Data MII capteur AQUADOPP
Date,Latitude,Longitude,X_East,Y_North,Z_Up,Amplitude_X,Amplitude_Y,Amplitude_Z,Batterie,SoundSpeed,Heading,Pitch,Roll,Pressure,TIS,Speed,Direction
, degrees North, degrees East, m.s-1, m.s-1,m.s-1, 1, 1, 1, Volt, m.s-1, degree, degree, degree, dbar, degree_C, m.s-1, degree
2019-11-09T00:09:08,42.805,6.029,0.044,-0.019,-0.029,100.0,101.0,98.0,13.3,1505.2,325.4,-0.7,1.8,2470.031,13.29,0.047,113.4
2019-11-09T00:12:11,42.805,6.029,0.067,-0.023,-0.049,102.0,100.0,98.0,13.4,1505.2,328.4,-0.7,1.9,2470.035,13.3,0.07,108.9
2019-11-09T00:15:14,42.805,6.029,0.04,0.002,-0.026,100.0,101.0,99.0,13.4,1505.3,325.6,-0.7,1.9,2470.034,13.31,0.04,87.1
2019-11-09T00:18:17,42.805,6.029,0.076,-0.001,-0.068,101.0,102.0,97.0,13.3,1505.3,325.0,-0.7,1.8,2470.046,13.31,0.076,90.8
2019-11-09T00:21:20,42.805,6.029,0.027,-0.033,-0.047,101.0,100.0,98.0,13.3,1505.3,324.6,-0.7,1.8,2470.023,13.32,0.042,140.7
2019-11-09T00:24:23,42.805,6.029,0.058,-0.015,-0.054,99.0,103.0,98.0,13.3,1505.3,326.2,-0.7,1.8,2470.031,13.32,0.059,104.5
2019-11-09T00:27:26,42.805,6.029,0.076,-0.003,-0.029,100.0,101.0,97.0,13.4,1505.3,323.3,-0.7,1.8,2469.997,13.32,0.076,92.3
2019-11-09T00:30:29,42.805,6.029,0.05,-0.015,-0.024,98.0,102.0,98.0,13.4,1505.3,326.2,-0.7,1.8,2470.027,13.32,0.052,106.7
2019-11-09T00:33:32,42.805,6.029,0.061,0.0,-0.033,99.0,102.0,98.0,13.3,1505.3,323.7,-0.7,1.8,2470.009,13.32,0.06,90.0
2019-11-09T00:36:35,42.805,6.029,0.056,-0.019,-0.028,101.0,101.0,98.0,13.4,1505.3,324.1,-0.7,1.8,2470.0,13.32,0.059,108.7
2019-11-09T00:39:38,42.805,6.029,0.063,-0.02,-0.036,100.0,101.0,98.0,13.4,1505.3,328.1,-0.7,1.8,2469.998,13.32,0.066,107.6
2019-11-09T00:42:41,42.805,6.029,0.083,0.0,-0.023,99.0,101.0,98.0,13.4,1505.3,326.9,-0.7,1.9,2469.988,13.32,0.082,90.0
2019-11-09T00:45:44,42.805,6.029,0.049,-0.014,-0.05,99.0,102.0,97.0,13.4,1505.3,325.8,-0.7,1.8,2469.995,13.32,0.05,105.9
2019-11-09T00:48:47,42.805,6.029,0.067,-0.015,-0.009,100.0,101.0,98.0,13.4,1505.3,328.5,-0.7,1.8,2470.012,13.32,0.068,102.6
2019-11-09T00:51:50,42.805,6.029,0.069,-0.017,-0.01,100.0,101.0,98.0,13.3,1505.3,324.4,-0.7,1.8,2469.968,13.32,0.071,103.8
2019-11-09T00:54:53,42.805,6.029,0.046,-0.016,-0.014,99.0,102.0,97.0,13.4,1505.3,325.5,-0.7,1.9,2469.994,13.32,0.048,109.2
2019-11-09T00:57:56,42.805,6.029,0.056,-0.002,-0.032,100.0,102.0,98.0,13.4,1505.3,324.0,-0.7,1.8,2469.975,13.32,0.056,92.0
2019-11-09T01:09:08,42.805,6.029,0.06,-0.011,-0.039,100.0,102.0,96.0,13.4,1505.2,326.4,-0.7,1.9,2470.059,13.29,0.06,100.4
2019-11-09T01:12:11,42.805,6.029,0.05,-0.003,-0.039,99.0,102.0,98.0,13.4,1505.2,323.8,-0.7,1.8,2470.064,13.3,0.05,93.4
2019-11-09T01:15:14,42.805,6.029,0.069,-0.038,-0.051,99.0,102.0,98.0,13.4,1505.3,327.4,-0.7,1.8,2470.047,13.31,0.078,118.8
2019-11-09T01:18:17,42.805,6.029,0.049,-0.003,-0.053,99.0,102.0,98.0,13.4,1505.3,325.6,-0.7,1.8,2470.05,13.31,0.049,93.5
2019-11-09T01:21:20,42.805,6.029,0.07,-0.028,0.028,97.0,100.0,99.0,13.4,1505.3,324.6,-0.7,1.8,2470.071,13.32,0.075,111.8
2019-11-09T01:24:23,42.805,6.029,0.066,-0.003,-0.017,98.0,101.0,98.0,13.4,1505.3,328.2,-0.7,1.8,2470.089,13.32,0.066,92.6
2019-11-09T01:27:26,42.805,6.029,0.054,-0.01,-0.008,99.0,101.0,98.0,13.4,1505.3,327.1,-0.7,1.9,2470.01,13.32,0.054,100.5
2019-11-09T01:30:29,42.805,6.029,0.048,-0.002,0.008,100.0,100.0,97.0,13.3,1505.3,326.0,-0.7,1.8,2470.006,13.32,0.048,92.4
2019-11-09T01:33:32,42.805,6.029,0.055,-0.021,0.006,100.0,101.0,97.0,13.4,1505.3,325.5,-0.7,1.8,2470.047,13.32,0.058,110.9
2019-11-09T01:36:35,42.805,6.029,0.072,-0.015,0.003,101.0,100.0,98.0,13.3,1505.3,323.3,-0.7,1.8,2470.0,13.32,0.073,101.8
2019-11-09T01:39:38,42.805,6.029,0.032,-0.027,-0.026,100.0,101.0,99.0,13.4,1505.3,324.4,-0.7,1.8,2470.009,13.32,0.041,130.2
2019-11-09T01:42:41,42.805,6.029,0.06,-0.011,-0.043,100.0,101.0,97.0,13.4,1505.3,323.2,-0.7,1.8,2470.013,13.32,0.06,100.4
2019-11-09T01:45:44,42.805,6.029,0.047,-0.025,-0.017,102.0,101.0,98.0,13.3,1505.3,326.9,-0.7,1.8,2469.993,13.32,0.053,118.0
2019-11-09T01:48:47,42.805,6.029,0.017,-0.031,-0.033,100.0,101.0,98.0,13.4,1505.3,324.7,-0.7,1.9,2469.999,13.32,0.035,151.3
2019-11-09T01:51:50,42.805,6.029,0.029,-0.009,0.01,99.0,102.0,98.0,13.4,1505.3,324.1,-0.7,1.9,2470.034,13.32,0.03,107.2
2019-11-09T01:54:53,42.805,6.029,0.04,-0.007,-0.03,99.0,102.0,97.0,13.4,1505.3,325.6,-0.7,1.8,2470.029,13.32,0.04,99.9
2019-11-09T01:57:56,42.805,6.029,0.063,-0.014,0.016,99.0,102.0,98.0,13.3,1505.3,324.0,-0.7,1.8,2470.013,13.32,0.064,102.5
2019-11-09T02:09:08,42.805,6.029,0.067,-0.014,-0.009,100.0,100.0,98.0,13.4,1505.2,326.9,-0.7,1.8,2470.059,13.29,0.068,101.8
2019-11-09T02:12:11,42.805,6.029,0.053,-0.026,-0.007,101.0,100.0,98.0,13.4,1505.2,325.8,-0.7,1.8,2470.052,13.3,0.059,116.1
2019-11-09T02:15:14,42.805,6.029,0.061,-0.018,0.008,100.0,100.0,98.0,13.4,1505.3,328.0,-0.7,1.8,2470.085,13.31,0.063,106.4
2019-11-09T02:18:17,42.805,6.029,0.044,-0.02,-0.004,99.0,101.0,97.0,13.3,1505.3,327.4,-0.7,1.9,2470.096,13.32,0.048,114.4
2019-11-09T02:21:20,42.805,6.029,0.062,-0.014,-0.022,100.0,101.0,98.0,13.4,1505.3,323.7,-0.7,1.9,2470.082,13.32,0.063,102.7
2019-11-09T02:24:23,42.805,6.029,0.047,-0.02,-0.003,99.0,100.0,98.0,13.4,1505.3,326.4,-0.7,1.8,2470.059,13.32,0.051,113.0
2019-11-09T02:27:26,42.805,6.029,0.032,-0.012,-0.021,99.0,102.0,97.0,13.4,1505.3,325.8,-0.7,1.8,2470.079,13.32,0.034,110.6
2019-11-09T02:30:29,42.805,6.029,0.079,-0.011,0.041,98.0,100.0,98.0,13.4,1505.3,326.8,-0.7,1.9,2470.068,13.32,0.079,97.9
2019-11-09T02:33:32,42.805,6.029,0.033,-0.007,-0.015,100.0,102.0,98.0,13.4,1505.3,324.7,-0.7,1.8,2470.027,13.32,0.033,102.0
2019-11-09T02:36:35,42.805,6.029,-0.005,-0.027,-0.039,98.0,102.0,98.0,13.4,1505.3,327.3,-0.7,1.8,2470.056,13.32,0.027,190.5
2019-11-09T02:39:38,42.805,6.029,0.033,-0.017,-0.01,100.0,100.0,97.0,13.3,1505.3,324.1,-0.7,1.8,2470.045,13.32,0.037,117.3
2019-11-09T02:42:41,42.805,6.029,0.028,-0.011,0.024,99.0,101.0,98.0,13.4,1505.3,326.1,-0.7,1.8,2470.01,13.32,0.03,111.4
2019-11-09T02:45:44,42.805,6.029,0.052,-0.016,-0.015,100.0,101.0,97.0,13.4,1505.3,323.9,-0.7,1.8,2470.028,13.32,0.054,107.1
2019-11-09T02:48:47,42.805,6.029,0.058,-0.019,0.02,98.0,101.0,98.0,13.4,1505.3,326.9,-0.8,1.8,2470.033,13.32,0.061,108.1
2019-11-09T02:51:50,42.805,6.029,0.018,-0.011,-0.068,99.0,101.0,98.0,13.3,1505.3,328.1,-0.7,1.8,2470.104,13.32,0.021,121.4
2019-11-09T02:54:53,42.805,6.029,0.047,-0.019,-0.025,100.0,100.0,98.0,13.3,1505.3,323.5,-0.7,1.8,2470.061,13.32,0.05,112.0
2019-11-09T02:57:56,42.805,6.029,0.031,0.02,-0.008,99.0,102.0,97.0,13.4,1505.3,326.4,-0.7,1.8,2470.052,13.32,0.036,57.2
2019-11-09T03:09:08,42.805,6.029,0.003,0.006,-0.013,100.0,100.0,97.0,13.4,1505.2,324.1,-0.8,1.8,2470.105,13.29,0.006,26.6
2019-11-09T03:12:11,42.805,6.029,0.01,-0.021,-0.025,99.0,102.0,97.0,13.4,1505.3,323.2,-0.7,1.9,2470.135,13.31,0.023,154.5
2019-11-09T03:15:14,42.805,6.029,0.017,-0.014,0.002,100.0,103.0,97.0,13.4,1505.3,327.2,-0.8,1.8,2470.148,13.31,0.022,129.5
2019-11-09T03:18:17,42.805,6.029,0.0,0.009,-0.033,100.0,101.0,98.0,13.4,1505.3,327.3,-0.7,1.8,2470.071,13.32,0.009,0.0
2019-11-09T03:21:20,42.805,6.029,0.054,0.004,0.042,100.0,103.0,97.0,13.4,1505.3,324.5,-0.7,1.8,2470.147,13.32,0.054,85.8
2019-11-09T03:24:23,42.805,6.029,0.011,-0.007,-0.011,100.0,102.0,97.0,13.4,1505.3,325.7,-0.7,1.8,2470.138,13.32,0.013,122.5
2019-11-09T03:27:26,42.805,6.029,0.02,-0.003,-0.007,98.0,101.0,98.0,13.4,1505.3,326.5,-0.7,1.8,2470.057,13.32,0.02,98.5
2019-11-09T03:30:29,42.805,6.029,0.036,-0.022,-0.025,98.0,103.0,98.0,13.3,1505.3,326.6,-0.7,1.8,2470.117,13.32,0.042,121.4
2019-11-09T03:33:32,42.805,6.029,0.046,-0.008,0.025,99.0,103.0,97.0,13.4,1505.3,326.7,-0.7,1.8,2470.122,13.32,0.046,99.9
2019-11-09T03:36:35,42.805,6.029,0.035,-0.024,-0.021,98.0,102.0,97.0,13.4,1505.3,326.3,-0.7,1.8,2470.122,13.32,0.042,124.4
2019-11-09T03:39:38,42.805,6.029,0.028,-0.004,-0.001,100.0,102.0,97.0,13.4,1505.3,323.2,-0.7,1.8,2470.094,13.32,0.028,98.1
2019-11-09T03:42:41,42.805,6.029,0.02,-0.009,-0.014,100.0,101.0,97.0,13.3,1505.3,326.8,-0.7,1.8,2470.065,13.32,0.021,114.2
2019-11-09T03:45:44,42.805,6.029,0.019,-0.005,0.018,99.0,102.0,98.0,13.4,1505.3,327.8,-0.7,1.8,2470.074,13.32,0.019,104.7
2019-11-09T03:48:47,42.805,6.029,-0.001,-0.021,0.008,99.0,104.0,97.0,13.4,1505.3,325.0,-0.7,1.8,2470.105,13.32,0.021,182.7
2019-11-09T03:51:50,42.805,6.029,0.022,-0.027,-0.022,99.0,102.0,97.0,13.4,1505.3,325.7,-0.7,1.8,2470.106,13.32,0.034,140.8
2019-11-09T03:54:53,42.805,6.029,0.018,-0.004,-0.006,99.0,102.0,97.0,13.4,1505.3,327.8,-0.7,1.8,2470.086,13.33,0.018,102.5
2019-11-09T03:57:56,42.805,6.029,0.023,-0.012,0.0,99.0,104.0,98.0,13.3,1505.3,323.4,-0.7,1.8,2470.085,13.33,0.025,117.6
2019-11-09T04:09:08,42.805,6.029,0.039,0.001,0.0,99.0,102.0,97.0,13.4,1505.2,324.4,-0.8,1.9,2470.176,13.3,0.039,88.5
2019-11-09T04:12:11,42.805,6.029,0.043,-0.01,0.016,99.0,102.0,98.0,13.4,1505.3,327.6,-0.7,1.8,2470.189,13.31,0.044,103.1
2019-11-09T04:15:14,42.805,6.029,0.014,-0.006,-0.024,99.0,101.0,98.0,13.4,1505.3,323.3,-0.7,1.8,2470.14,13.31,0.015,113.2
2019-11-09T04:18:17,42.805,6.029,0.046,0.0,0.002,98.0,101.0,98.0,13.3,1505.3,324.0,-0.7,1.8,2470.165,13.32,0.046,90.0
2019-11-09T04:21:20,42.805,6.029,0.047,-0.024,-0.055,99.0,102.0,98.0,13.3,1505.3,324.1,-0.7,1.8,2470.161,13.32,0.052,117.0
2019-11-09T04:24:23,42.805,6.029,0.019,-0.026,-0.031,99.0,102.0,98.0,13.3,1505.3,324.8,-0.7,1.8,2470.151,13.32,0.032,143.8
2019-11-09T04:27:26,42.805,6.029,0.019,-0.015,0.011,98.0,103.0,97.0,13.4,1505.3,329.1,-0.7,1.8,2470.156,13.32,0.024,128.3
2019-11-09T04:30:29,42.805,6.029,0.015,-0.015,-0.02,99.0,103.0,97.0,13.3,1505.3,327.1,-0.7,1.8,2470.13,13.32,0.021,135.0
2019-11-09T04:33:32,42.805,6.029,0.033,0.009,0.009,99.0,101.0,98.0,13.4,1505.3,326.4,-0.7,1.8,2470.14,13.33,0.034,74.7
2019-11-09T04:36:35,42.805,6.029,0.027,0.014,-0.017,99.0,102.0,97.0,13.4,1505.3,323.4,-0.7,1.8,2470.181,13.33,0.03,62.6
2019-11-09T04:39:38,42.805,6.029,0.022,-0.007,-0.025,98.0,103.0,97.0,13.4,1505.3,326.9,-0.7,1.8,2470.16,13.33,0.023,107.6
2019-11-09T04:42:41,42.805,6.029,0.018,-0.016,-0.032,98.0,104.0,96.0,13.4,1505.3,324.1,-0.7,1.8,2470.138,13.33,0.024,131.6
2019-11-09T04:45:44,42.805,6.029,0.0,0.001,-0.01,97.0,103.0,98.0,13.4,1505.3,328.3,-0.7,1.8,2470.149,13.33,0.001,0.0
2019-11-09T04:48:47,42.805,6.029,0.007,0.0,-0.05,98.0,103.0,98.0,13.4,1505.3,325.8,-0.7,1.9,2470.157,13.33,0.007,90.0
2019-11-09T04:51:50,42.805,6.029,0.022,0.021,0.029,99.0,102.0,97.0,13.3,1505.3,326.0,-0.7,1.9,2470.095,13.33,0.03,46.3
2019-11-09T04:54:53,42.805,6.029,0.002,0.015,0.009,101.0,103.0,96.0,13.3,1505.3,325.8,-0.7,1.8,2470.093,13.33,0.015,7.6
2019-11-09T04:57:56,42.805,6.029,-0.017,-0.015,-0.083,100.0,103.0,98.0,13.4,1505.3,328.6,-0.7,1.8,2470.135,13.33,0.022,228.6
2019-11-09T05:09:08,42.805,6.029,-0.014,0.006,-0.045,100.0,102.0,97.0,13.3,1505.2,324.7,-0.7,1.8,2470.198,13.3,0.015,293.2
2019-11-09T05:12:11,42.805,6.029,-0.006,0.001,-0.004,100.0,103.0,99.0,13.3,1505.3,325.3,-0.7,1.9,2470.164,13.31,0.006,279.5
2019-11-09T05:15:14,42.805,6.029,0.007,-0.006,-0.041,97.0,103.0,98.0,13.3,1505.3,324.7,-0.7,1.8,2470.18,13.32,0.009,130.6
2019-11-09T05:18:17,42.805,6.029,-0.018,-0.018,-0.089,100.0,102.0,97.0,13.3,1505.3,323.3,-0.7,1.8,2470.199,13.32,0.025,225.0
2019-11-09T05:21:20,42.805,6.029,-0.009,0.0,-0.039,99.0,103.0,97.0,13.4,1505.3,327.8,-0.7,1.8,2470.159,13.32,0.009,270.0
2019-11-09T05:24:23,42.805,6.029,0.031,0.009,-0.039,99.0,103.0,97.0,13.3,1505.3,326.6,-0.7,1.8,2470.151,13.33,0.032,73.8
2019-11-09T05:27:26,42.805,6.029,0.007,-0.005,-0.034,100.0,100.0,96.0,13.3,1505.3,327.8,-0.7,1.8,2470.141,13.33,0.008,125.5
2019-11-09T05:30:29,42.805,6.029,-0.001,-0.006,-0.047,99.0,102.0,96.0,13.4,1505.3,327.3,-0.7,1.8,2470.125,13.33,0.006,189.5
2019-11-09T05:33:32,42.805,6.029,-0.034,-0.012,-0.086,100.0,103.0,96.0,13.4,1505.3,326.9,-0.7,1.8,2470.133,13.33,0.036,250.6
2019-11-09T05:36:35,42.805,6.029,0.016,0.031,-0.031,99.0,103.0,97.0,13.3,1505.3,328.5,-0.7,1.9,2470.145,13.33,0.034,27.3
2019-11-09T05:39:38,42.805,6.029,0.007,-0.007,-0.011,99.0,103.0,97.0,13.4,1505.3,327.3,-0.7,1.8,2470.134,13.33,0.009,135.0
2019-11-09T05:42:41,42.805,6.029,-0.028,0.004,-0.058,99.0,103.0,97.0,13.3,1505.3,325.0,-0.7,1.8,2470.145,13.33,0.028,278.1
2019-11-09T05:45:44,42.805,6.029,0.028,-0.011,0.026,98.0,103.0,97.0,13.4,1505.3,327.7,-0.7,1.8,2470.127,13.33,0.03,111.4
2019-11-09T05:48:47,42.805,6.029,0.049,0.0,0.0,101.0,102.0,98.0,13.4,1505.3,325.0,-0.7,1.8,2470.139,13.33,0.049,90.0
2019-11-09T05:51:50,42.805,6.029,0.013,-0.006,-0.036,100.0,104.0,98.0,13.4,1505.3,324.3,-0.7,1.8,2470.124,13.33,0.014,114.8
2019-11-09T05:54:53,42.805,6.029,0.032,-0.01,0.022,99.0,103.0,98.0,13.4,1505.3,327.6,-0.7,1.8,2470.144,13.33,0.033,107.4
2019-11-09T05:57:56,42.805,6.029,0.023,-0.004,-0.004,101.0,102.0,97.0,13.3,1505.3,327.4,-0.7,1.8,2470.086,13.33,0.023,99.9
2019-11-09T06:09:08,42.805,6.029,0.042,0.011,-0.002,99.0,103.0,98.0,13.4,1505.2,326.3,-0.8,1.8,2470.252,13.3,0.043,75.3
2019-11-09T06:12:11,42.805,6.029,0.016,-0.007,-0.042,98.0,103.0,96.0,13.4,1505.3,324.4,-0.7,1.8,2470.189,13.31,0.017,113.6
2019-11-09T06:15:14,42.805,6.029,0.04,0.006,0.009,98.0,103.0,98.0,13.3,1505.3,325.0,-0.7,1.8,2470.217,13.31,0.04,81.5
2019-11-09T06:18:17,42.805,6.029,0.003,0.001,-0.069,101.0,104.0,96.0,13.4,1505.3,324.9,-0.7,1.8,2470.143,13.32,0.003,71.6
2019-11-09T06:21:20,42.805,6.029,0.007,-0.009,-0.03,99.0,104.0,96.0,13.3,1505.3,326.6,-0.7,1.8,2470.149,13.32,0.011,142.1
2019-11-09T06:24:23,42.805,6.029,-0.006,0.022,-0.018,99.0,104.0,96.0,13.3,1505.3,325.4,-0.7,1.8,2470.183,13.32,0.022,344.7
2019-11-09T06:27:26,42.805,6.029,0.007,-0.003,-0.019,97.0,104.0,100.0,13.4,1505.3,327.4,-0.7,1.8,2470.167,13.32,0.007,113.2
2019-11-09T06:30:29,42.805,6.029,-0.003,0.005,-0.046,100.0,104.0,97.0,13.4,1505.3,325.0,-0.7,1.8,2470.135,13.32,0.005,329.0
2019-11-09T06:33:32,42.805,6.029,0.016,0.022,-0.027,98.0,103.0,98.0,13.3,1505.3,323.2,-0.7,1.8,2470.126,13.32,0.027,36.0
2019-11-09T06:36:35,42.805,6.029,0.036,-0.008,-0.027,99.0,105.0,97.0,13.3,1505.3,326.5,-0.7,1.8,2470.161,13.32,0.036,102.5
2019-11-09T06:39:38,42.805,6.029,0.021,0.032,-0.017,97.0,104.0,97.0,13.3,1505.3,323.3,-0.7,1.8,2470.157,13.32,0.038,33.3
2019-11-09T06:42:41,42.805,6.029,0.009,-0.003,-0.031,98.0,104.0,98.0,13.3,1505.3,325.2,-0.7,1.8,2470.134,13.32,0.009,108.4
2019-11-09T06:45:44,42.805,6.029,0.019,0.006,-0.024,98.0,104.0,97.0,13.4,1505.3,325.1,-0.7,1.8,2470.173,13.32,0.019,72.5
2019-11-09T06:48:47,42.805,6.029,-0.008,-0.003,-0.026,99.0,103.0,97.0,13.3,1505.3,328.1,-0.7,1.8,2470.144,13.32,0.008,249.4
2019-11-09T06:51:50,42.805,6.029,0.019,-0.011,-0.058,100.0,103.0,97.0,13.4,1505.3,324.3,-0.7,1.8,2470.126,13.32,0.021,120.1
2019-11-09T06:54:53,42.805,6.029,-0.002,0.002,-0.031,97.0,104.0,97.0,13.4,1505.3,324.2,-0.8,1.8,2470.125,13.32,0.002,315.0
2019-11-09T06:57:56,42.805,6.029,0.03,0.015,-0.016,98.0,104.0,97.0,13.4,1505.3,328.4,-0.7,1.8,2470.113,13.32,0.033,63.4
2019-11-09T07:09:08,42.805,6.029,0.048,0.013,-0.017,98.0,106.0,97.0,13.3,1505.2,326.7,-0.8,1.8,2470.206,13.29,0.049,74.8
2019-11-09T07:12:11,42.805,6.029,0.042,0.0,-0.02,99.0,106.0,97.0,13.3,1505.3,324.6,-0.7,1.8,2470.199,13.31,0.042,90.0
2019-11-09T07:15:14,42.805,6.029,0.028,0.043,-0.002,99.0,106.0,97.0,13.4,1505.3,322.8,-0.7,1.9,2470.151,13.31,0.051,33.1
2019-11-09T07:18:17,42.805,6.029,0.052,0.009,0.025,99.0,106.0,97.0,13.4,1505.3,324.1,-0.8,1.8,2470.186,13.32,0.052,80.2
2019-11-09T07:21:20,42.805,6.029,0.04,0.026,-0.029,97.0,107.0,98.0,13.3,1505.3,323.2,-0.7,1.8,2470.204,13.32,0.047,57.0
2019-11-09T07:24:23,42.805,6.029,0.056,0.013,0.015,99.0,106.0,97.0,13.4,1505.3,324.9,-0.7,1.8,2470.162,13.32,0.057,76.9
2019-11-09T07:27:26,42.805,6.029,0.058,0.003,0.026,98.0,105.0,98.0,13.4,1505.3,328.5,-0.7,1.8,2470.157,13.32,0.058,87.0
2019-11-09T07:30:29,42.805,6.029,0.036,0.005,-0.006,99.0,107.0,97.0,13.4,1505.3,325.8,-0.7,1.8,2470.121,13.32,0.036,82.1
2019-11-09T07:33:32,42.805,6.029,0.053,-0.004,-0.014,99.0,105.0,98.0,13.3,1505.3,325.5,-0.7,1.9,2470.127,13.32,0.053,94.3
2019-11-09T07:36:35,42.805,6.029,-0.007,0.022,-0.055,98.0,108.0,97.0,13.3,1505.3,326.2,-0.7,1.8,2470.138,13.32,0.023,342.4
2019-11-09T07:39:38,42.805,6.029,0.039,0.019,-0.008,97.0,107.0,98.0,13.4,1505.3,327.2,-0.7,1.8,2470.072,13.32,0.043,64.0
2019-11-09T07:42:41,42.805,6.029,0.015,0.025,-0.027,98.0,107.0,98.0,13.3,1505.3,326.5,-0.7,1.9,2470.123,13.32,0.029,31.0
2019-11-09T07:45:44,42.805,6.029,0.032,0.016,-0.023,98.0,106.0,98.0,13.4,1505.3,324.6,-0.8,1.8,2470.082,13.32,0.035,63.4
2019-11-09T07:48:47,42.805,6.029,-0.002,0.03,-0.023,96.0,107.0,98.0,13.4,1505.3,325.6,-0.7,1.8,2470.102,13.32,0.03,356.2
2019-11-09T07:51:50,42.805,6.029,0.066,0.016,0.009,99.0,107.0,98.0,13.4,1505.3,324.4,-0.7,1.9,2470.143,13.32,0.067,76.4
2019-11-09T07:54:53,42.805,6.029,0.023,0.008,-0.008,98.0,107.0,98.0,13.3,1505.3,326.4,-0.7,1.8,2470.095,13.32,0.024,70.8
2019-11-09T07:57:56,42.805,6.029,0.05,0.029,-0.017,99.0,107.0,97.0,13.4,1505.3,327.2,-0.7,1.8,2470.132,13.32,0.057,59.9
2019-11-09T08:09:08,42.805,6.029,0.04,0.03,-0.052,101.0,108.0,97.0,13.4,1505.2,323.4,-0.7,1.8,2470.189,13.29,0.05,53.1
2019-11-09T08:12:11,42.805,6.029,0.045,0.012,-0.033,99.0,107.0,99.0,13.4,1505.2,325.4,-0.7,1.8,2470.166,13.3,0.046,75.1
2019-11-09T08:15:14,42.805,6.029,0.065,0.022,-0.013,99.0,108.0,97.0,13.4,1505.3,326.6,-0.7,1.8,2470.166,13.31,0.068,71.3
2019-11-09T08:18:17,42.805,6.029,0.046,0.025,-0.003,100.0,106.0,99.0,13.4,1505.3,323.0,-0.7,1.8,2470.132,13.31,0.052,61.5
2019-11-09T08:21:20,42.805,6.029,0.023,0.024,-0.066,99.0,108.0,97.0,13.4,1505.3,326.8,-0.7,1.8,2470.144,13.32,0.033,43.8
2019-11-09T08:24:23,42.805,6.029,0.043,0.025,-0.028,100.0,109.0,98.0,13.4,1505.3,325.4,-0.8,1.8,2470.117,13.32,0.049,59.8
2019-11-09T08:27:26,42.805,6.029,0.063,0.034,0.012,99.0,110.0,98.0,13.4,1505.3,327.8,-0.7,1.8,2470.075,13.32,0.071,61.6
2019-11-09T08:30:29,42.805,6.029,0.057,0.016,-0.036,100.0,111.0,97.0,13.4,1505.3,324.9,-0.7,1.9,2470.101,13.32,0.059,74.3
2019-11-09T08:33:32,42.805,6.029,0.04,0.063,-0.021,100.0,109.0,97.0,13.4,1505.3,325.7,-0.7,1.8,2470.122,13.32,0.074,32.4
2019-11-09T08:36:35,42.805,6.029,0.046,0.035,-0.028,99.0,111.0,97.0,13.4,1505.3,326.8,-0.7,1.8,2470.104,13.32,0.057,52.7
2019-11-09T08:39:38,42.805,6.029,0.045,0.02,-0.025,98.0,109.0,97.0,13.4,1505.3,327.0,-0.7,1.9,2470.082,13.32,0.049,66.0
2019-11-09T08:42:41,42.805,6.029,0.05,0.03,-0.02,100.0,109.0,98.0,13.4,1505.3,326.3,-0.7,1.8,2470.082,13.32,0.058,59.0
2019-11-09T08:45:44,42.805,6.029,0.053,0.023,-0.022,100.0,112.0,96.0,13.4,1505.3,327.5,-0.7,1.8,2470.135,13.32,0.057,66.5
2019-11-09T08:48:47,42.805,6.029,0.065,0.01,-0.056,98.0,112.0,98.0,13.3,1505.3,325.4,-0.7,1.8,2470.112,13.32,0.065,81.3
2019-11-09T08:51:50,42.805,6.029,0.041,0.018,-0.057,100.0,108.0,97.0,13.3,1505.3,323.1,-0.7,1.9,2470.06,13.32,0.044,66.3
2019-11-09T08:54:53,42.805,6.029,0.011,0.002,-0.063,99.0,112.0,97.0,13.4,1505.3,323.7,-0.7,1.8,2470.096,13.32,0.011,79.7
2019-11-09T08:57:56,42.805,6.029,0.034,0.03,-0.04,98.0,112.0,98.0,13.4,1505.3,326.2,-0.7,1.8,2470.066,13.32,0.045,48.6
2019-11-09T09:09:08,42.805,6.029,0.065,0.009,-0.034,98.0,111.0,98.0,13.4,1505.2,323.5,-0.8,1.8,2470.171,13.29,0.065,82.1
2019-11-09T09:12:11,42.805,6.029,0.044,0.018,-0.024,99.0,111.0,98.0,13.4,1505.2,328.4,-0.7,1.9,2470.136,13.3,0.047,67.8
2019-11-09T09:15:14,42.805,6.029,0.043,0.016,-0.02,99.0,107.0,99.0,13.4,1505.3,325.4,-0.7,1.9,2470.135,13.31,0.045,69.6
2019-11-09T09:18:17,42.805,6.029,0.078,0.023,-0.019,100.0,108.0,98.0,13.3,1505.3,323.4,-0.7,1.8,2470.12,13.31,0.081,73.6
2019-11-09T09:21:20,42.805,6.029,0.024,0.023,-0.006,100.0,107.0,97.0,13.4,1505.3,328.0,-0.7,1.9,2470.084,13.32,0.033,46.2
2019-11-09T09:24:23,42.805,6.029,0.053,0.015,-0.007,99.0,108.0,98.0,13.4,1505.3,324.8,-0.7,1.8,2470.092,13.32,0.055,74.2
2019-11-09T09:27:26,42.805,6.029,0.055,0.01,-0.036,98.0,111.0,98.0,13.4,1505.3,323.5,-0.7,1.8,2470.14,13.32,0.055,79.7
2019-11-09T09:30:29,42.805,6.029,0.022,0.009,-0.047,98.0,109.0,98.0,13.4,1505.3,324.4,-0.7,1.8,2470.097,13.32,0.023,67.8
2019-11-09T09:33:32,42.805,6.029,0.044,0.008,-0.02,99.0,110.0,97.0,13.4,1505.3,326.5,-0.7,1.8,2470.078,13.32,0.044,79.7
2019-11-09T09:36:35,42.805,6.029,0.058,0.0,-0.046,100.0,107.0,97.0,13.4,1505.3,327.8,-0.7,1.8,2470.067,13.32,0.057,90.0
2019-11-09T09:39:38,42.805,6.029,0.061,0.0,-0.032,98.0,107.0,98.0,13.4,1505.3,323.1,-0.8,1.9,2470.076,13.32,0.06,90.0
2019-11-09T09:42:41,42.805,6.029,0.054,0.013,0.018,100.0,106.0,98.0,13.4,1505.3,328.2,-0.7,1.8,2470.094,13.32,0.055,76.5
2019-11-09T09:45:44,42.805,6.029,0.046,0.026,-0.005,98.0,107.0,99.0,13.3,1505.3,328.6,-0.7,1.9,2470.086,13.32,0.052,60.5
2019-11-09T09:48:47,42.805,6.029,0.075,0.009,-0.017,99.0,109.0,99.0,13.4,1505.3,326.3,-0.7,1.8,2470.09,13.32,0.075,83.2
2019-11-09T09:51:50,42.805,6.029,0.04,0.012,-0.007,97.0,110.0,97.0,13.4,1505.3,327.7,-0.7,1.9,2470.086,13.32,0.041,73.3
2019-11-09T09:54:53,42.805,6.029,0.036,0.026,-0.009,99.0,110.0,98.0,13.4,1505.3,325.0,-0.7,1.8,2470.05,13.32,0.044,54.2
2019-11-09T09:57:56,42.805,6.029,0.053,-0.004,-0.026,100.0,110.0,97.0,13.4,1505.3,323.8,-0.7,1.8,2470.082,13.32,0.053,94.3
2019-11-09T10:09:08,42.805,6.029,0.053,-0.002,0.001,99.0,111.0,98.0,13.4,1505.2,327.3,-0.8,1.8,2470.157,13.29,0.053,92.2
2019-11-09T11:04:08,42.805,6.029,0.063,-0.02,-0.014,100.0,106.0,98.0,13.4,1505.1,326.8,-0.8,1.9,2470.543,13.27,0.066,107.6
2019-11-09T11:07:11,42.805,6.029,0.05,-0.001,-0.004,100.0,107.0,98.0,13.4,1505.2,325.9,-0.7,1.8,2470.474,13.29,0.05,91.1
2019-11-09T11:10:14,42.805,6.029,0.065,-0.002,-0.012,99.0,108.0,97.0,13.3,1505.2,326.1,-0.7,1.8,2470.457,13.3,0.065,91.8
2019-11-09T11:13:17,42.805,6.029,0.048,-0.014,0.0,99.0,106.0,97.0,13.4,1505.3,323.8,-0.7,1.8,2470.397,13.31,0.05,106.3
2019-11-09T11:16:20,42.805,6.029,0.062,-0.016,-0.026,100.0,108.0,98.0,13.4,1505.3,325.6,-0.7,1.8,2470.317,13.31,0.064,104.5
2019-11-09T11:19:23,42.805,6.029,0.061,-0.002,-0.033,100.0,106.0,98.0,13.3,1505.3,326.1,-0.7,1.8,2470.263,13.31,0.061,91.9
2019-11-09T11:22:26,42.805,6.029,0.085,0.008,-0.003,102.0,105.0,97.0,13.4,1505.3,326.3,-0.7,1.8,2470.221,13.32,0.085,84.6
2019-11-09T11:25:29,42.805,6.029,0.079,0.011,0.001,100.0,105.0,97.0,13.4,1505.3,324.8,-0.7,1.9,2470.175,13.32,0.079,82.1
2019-11-09T11:28:32,42.805,6.029,0.049,-0.02,-0.019,99.0,107.0,98.0,13.4,1505.3,324.8,-0.7,1.8,2470.137,13.32,0.052,112.2
2019-11-09T11:31:35,42.805,6.029,0.069,-0.005,0.016,100.0,103.0,99.0,13.4,1505.3,323.6,-0.7,1.8,2470.091,13.32,0.069,94.1
2019-11-09T11:34:38,42.805,6.029,0.054,-0.009,-0.013,100.0,104.0,98.0,13.4,1505.3,328.3,-0.7,1.8,2470.081,13.32,0.054,99.5
2019-11-09T11:37:41,42.805,6.029,0.055,0.017,0.0,100.0,104.0,98.0,13.4,1505.3,326.8,-0.7,1.8,2470.083,13.32,0.057,72.8
2019-11-09T11:40:44,42.805,6.029,0.069,-0.017,-0.01,100.0,104.0,98.0,13.4,1505.3,323.3,-0.7,1.8,2470.077,13.32,0.071,103.8
2019-11-09T11:43:47,42.805,6.029,0.059,-0.029,-0.036,101.0,107.0,98.0,13.3,1505.3,328.3,-0.7,1.8,2470.045,13.32,0.065,116.2
2019-11-09T11:46:50,42.805,6.029,0.059,-0.013,-0.006,100.0,104.0,99.0,13.4,1505.3,325.7,-0.7,1.9,2470.044,13.32,0.06,102.4
2019-11-09T11:49:53,42.805,6.029,0.033,0.001,0.0,101.0,105.0,99.0,13.4,1505.3,326.4,-0.7,1.8,2470.024,13.32,0.033,88.3
2019-11-09T11:52:56,42.805,6.029,0.069,-0.011,-0.012,100.0,105.0,99.0,13.4,1505.3,324.3,-0.7,1.8,2470.01,13.32,0.069,99.1
2019-11-09T11:55:59,42.805,6.029,0.065,-0.016,-0.031,100.0,105.0,98.0,13.3,1505.3,326.9,-0.7,1.8,2470.02,13.32,0.066,103.8
2019-11-09T11:59:02,42.805,6.029,0.052,-0.014,-0.006,101.0,105.0,98.0,13.4,1505.3,323.8,-0.7,1.8,2470.031,13.32,0.053,105.1
2019-11-09T12:09:08,42.805,6.029,0.077,-0.03,-0.018,100.0,106.0,99.0,13.4,1505.2,326.6,-0.8,1.8,2470.119,13.29,0.082,111.3
2019-11-09T12:12:11,42.805,6.029,0.08,-0.019,0.002,100.0,104.0,98.0,13.3,1505.2,323.4,-0.7,1.8,2470.124,13.3,0.082,103.4
2019-11-09T12:15:14,42.805,6.029,0.071,-0.044,-0.015,100.0,103.0,98.0,13.4,1505.3,326.3,-0.7,1.8,2470.072,13.31,0.083,121.8